QPF
0.06 0.07 0.10 0.09 0.07 0.06 0.05 0.06 0.06 0.05 0.05 0.05 0.05 0.05 0.06 0.09 0.11 0.10 0.10 0.11 0.13 0.15 0.18 0.20 0.23 0.22 0.21 0.18 0.15 0.13 0.11 0.09 0.08 0.07 0.07 0.06 0.07 0.06 0.05 0.05 0.07 0.07 0.06
0.03 0.05 0.08 0.08 0.06 0.04 0.03 0.04 0.05 0.05 0.05 0.05 0.05 0.06 0.05 0.06 0.09 0.11 0.10 0.12 0.14 0.16 0.17 0.16 0.16 0.17 0.16 0.17 0.15 0.15 0.14 0.12 0.09 0.07 0.07 0.07 0.07 0.06 0.04 0.05 0.05 0.07 0.06
0.03 0.03 0.05 0.07 0.05 0.04 0.03 0.03 0.03 0.04 0.04 0.04 0.04 0.06 0.06 0.07 0.08 0.11 0.11 0.11 0.13 0.14 0.11 0.11 0.11 0.12 0.12 0.12 0.12 0.12 0.09 0.08 0.09 0.08 0.07 0.05 0.04 0.05 0.05 0.04 0.04 0.05 0.04
0.02 0.03 0.05 0.06 0.05 0.04 0.03 0.03 0.03 0.04 0.04 0.04 0.04 0.04 0.05 0.06 0.08 0.08 0.08 0.09 0.10 0.09 0.09 0.08 0.11 0.12 0.10 0.09 0.08 0.09 0.09 0.10 0.11 0.09 0.05 0.03 0.02 0.03 0.04 0.04 0.03 0.03 0.04
0.02 0.03 0.05 0.05 0.05 0.04 0.03 0.05 0.05 0.04 0.04 0.04 0.04 0.05 0.05 0.05 0.07 0.06 0.06 0.07 0.07 0.08 0.10 0.10 0.11 0.12 0.10 0.09 0.09 0.10 0.11 0.10 0.10 0.07 0.05 0.04 0.04 0.04 0.03 0.04 0.03 0.03 0.04
0.01 0.02 0.04 0.05 0.05 0.04 0.04 0.05 0.04 0.04 0.04 0.04 0.05 0.06 0.06 0.06 0.06 0.05 0.05 0.06 0.08 0.07 0.07 0.08 0.10 0.10 0.10 0.10 0.10 0.11 0.11 0.11 0.07 0.05 0.04 0.03 0.04 0.04 0.04 0.05 0.04 0.05 0.05
0.01 0.03 0.03 0.04 0.04 0.04 0.04 0.04 0.04 0.04 0.05 0.06 0.07 0.07 0.07 0.06 0.04 0.03 0.04 0.05 0.06 0.06 0.06 0.08 0.09 0.08 0.08 0.08 0.10 0.11 0.11 0.10 0.04 0.05 0.05 0.04 0.04 0.04 0.05 0.05 0.05 0.05 0.05
0.01 0.02 0.03 0.04 0.04 0.05 0.04 0.04 0.03 0.04 0.05 0.06 0.07 0.05 0.05 0.06 0.05 0.03 0.03 0.04 0.04 0.04 0.05 0.06 0.07 0.07 0.07 0.08 0.09 0.09 0.09 0.06 0.02 0.03 0.04 0.06 0.04 0.04 0.06 0.04 0.03 0.04 0.04
0.00 0.02 0.03 0.03 0.03 0.04 0.05 0.05 0.03 0.03 0.04 0.04 0.06 0.05 0.04 0.04 0.05 0.04 0.04 0.05 0.04 0.03 0.04 0.04 0.05 0.05 0.05 0.07 0.07 0.06 0.06 0.04 0.02 0.02 0.03 0.06 0.04 0.04 0.04 0.04 0.03 0.02 0.02
0.01 0.01 0.03 0.03 0.03 0.03 0.03 0.04 0.04 0.04 0.04 0.04 0.05 0.04 0.03 0.03 0.03 0.03 0.04 0.04 0.04 0.03 0.02 0.03 0.05 0.04 0.05 0.06 0.06 0.06 0.05 0.04 0.02 0.03 0.04 0.04 0.04 0.05 0.06 0.04 0.03 0.03 0.02
0.01 0.02 0.03 0.02 0.02 0.02 0.01 0.02 0.03 0.02 0.03 0.04 0.04 0.03 0.03 0.05 0.05 0.05 0.03 0.05 0.05 0.04 0.03 0.04 0.04 0.05 0.05 0.07 0.07 0.06 0.05 0.04 0.02 0.03 0.03 0.02 0.03 0.06 0.05 0.04 0.04 0.05 0.04
0.02 0.02 0.03 0.02 0.02 0.02 0.02 0.04 0.04 0.03 0.03 0.03 0.04 0.04 0.04 0.05 0.05 0.04 0.03 0.07 0.07 0.06 0.06 0.06 0.05 0.05 0.06 0.07 0.08 0.06 0.05 0.04 0.02 0.02 0.03 0.02 0.03 0.05 0.04 0.04 0.05 0.07 0.06
0.02 0.02 0.01 0.02 0.03 0.04 0.05 0.05 0.04 0.05 0.05 0.04 0.05 0.05 0.05 0.04 0.04 0.04 0.04 0.05 0.06 0.06 0.06 0.05 0.04 0.04 0.04 0.07 0.08 0.05 0.05 0.04 0.03 0.03 0.04 0.03 0.04 0.03 0.03 0.04 0.05 0.05 0.03
0.04 0.03 0.01 0.01 0.03 0.05 0.05 0.04 0.03 0.03 0.04 0.04 0.04 0.04 0.05 0.05 0.06 0.05 0.04 0.04 0.06 0.07 0.07 0.06 0.06 0.06 0.05 0.05 0.05 0.04 0.04 0.03 0.04 0.05 0.06 0.04 0.05 0.05 0.04 0.04 0.03 0.03 0.02
0.05 0.05 0.02 0.02 0.04 0.06 0.07 0.06 0.04 0.04 0.04 0.04 0.05 0.04 0.05 0.05 0.04 0.05 0.05 0.05 0.04 0.05 0.06 0.06 0.06 0.06 0.06 0.05 0.04 0.03 0.04 0.04 0.04 0.06 0.08 0.07 0.08 0.06 0.06 0.06 0.05 0.04 0.03
0.04 0.05 0.03 0.03 0.03 0.05 0.08 0.06 0.05 0.05 0.07 0.06 0.07 0.06 0.06 0.05 0.04 0.04 0.05 0.06 0.05 0.05 0.04 0.04 0.05 0.06 0.08 0.07 0.07 0.05 0.03 0.04 0.03 0.05 0.06 0.07 0.07 0.04 0.04 0.05 0.06 0.06 0.05
0.04 0.03 0.03 0.03 0.03 0.04 0.05 0.05 0.04 0.07 0.11 0.09 0.08 0.06 0.05 0.05 0.04 0.04 0.04 0.06 0.06 0.06 0.05 0.04 0.06 0.07 0.07 0.07 0.07 0.05 0.04 0.05 0.04 0.04 0.04 0.05 0.05 0.03 0.03 0.04 0.05 0.06 0.06
0.02 0.03 0.03 0.01 0.03 0.05 0.06 0.07 0.05 0.06 0.08 0.07 0.07 0.06 0.06 0.04 0.04 0.05 0.05 0.05 0.07 0.06 0.08 0.08 0.10 0.08 0.06 0.06 0.06 0.05 0.04 0.05 0.03 0.03 0.03 0.03 0.04 0.04 0.05 0.04 0.05 0.06 0.07
0.02 0.02 0.03 0.03 0.05 0.05 0.06 0.06 0.05 0.04 0.06 0.06 0.05 0.05 0.05 0.04 0.04 0.05 0.08 0.09 0.07 0.07 0.08 0.07 0.07 0.08 0.09 0.10 0.06 0.05 0.04 0.04 0.03 0.03 0.03 0.03 0.03 0.05 0.07 0.05 0.04 0.04 0.05
0.02 0.01 0.02 0.02 0.02 0.03 0.04 0.04 0.04 0.03 0.04 0.04 0.05 0.05 0.04 0.05 0.04 0.05 0.07 0.08 0.06 0.08 0.10 0.10 0.11 0.09 0.08 0.10 0.06 0.05 0.04 0.03 0.03 0.04 0.03 0.03 0.03 0.03 0.03 0.04 0.05 0.04 0.03
0.02 0.02 0.01 0.01 0.01 0.02 0.03 0.04 0.04 0.05 0.04 0.04 0.05 0.04 0.03 0.03 0.03 0.06 0.06 0.06 0.06 0.08 0.07 0.07 0.09 0.08 0.07 0.06 0.06 0.05 0.03 0.02 0.02 0.02 0.03 0.04 0.03 0.03 0.02 0.04 0.06 0.06 0.04
0.01 0.01 0.01 0.01 0.01 0.02 0.02 0.02 0.03 0.04 0.04 0.03 0.04 0.04 0.03 0.02 0.04 0.05 0.07 0.06 0.06 0.08 0.08 0.08 0.09 0.09 0.07 0.06 0.07 0.07 0.06 0.03 0.02 0.02 0.02 0.03 0.04 0.05 0.06 0.05 0.06 0.07 0.06
0.01 0.01 0.00 0.01 0.01 0.01 0.01 0.01 0.01 0.03 0.03 0.03 0.04 0.05 0.03 0.02 0.03 0.04 0.06 0.06 0.06 0.06 0.07 0.09 0.07 0.09 0.08 0.06 0.06 0.09 0.09 0.08 0.06 0.04 0.02 0.02 0.03 0.07 0.10 0.09 0.08 0.09 0.09
0.00 0.00 0.00 0.01 0.01 0.01 0.01 0.01 0.02 0.03 0.04 0.04 0.04 0.05 0.04 0.03 0.03 0.02 0.04 0.06 0.06 0.06 0.07 0.06 0.04 0.08 0.09 0.08 0.07 0.07 0.08 0.08 0.08 0.06 0.03 0.03 0.02 0.02 0.04 0.05 0.06 0.09 0.10
0.00 0.00 0.00 0.01 0.01 0.01 0.01 0.01 0.02 0.02 0.03 0.03 0.03 0.04 0.04 0.04 0.03 0.02 0.03 0.04 0.05 0.06 0.08 0.07 0.06 0.09 0.09 0.09 0.08 0.07 0.06 0.06 0.06 0.07 0.06 0.05 0.04 0.04 0.04 0.04 0.03 0.04 0.05
0.00 0.01 0.01 0.01 0.01 0.01 0.02 0.02 0.02 0.02 0.02 0.02 0.03 0.03 0.03 0.04 0.04 0.02 0.02 0.04 0.05 0.06 0.07 0.07 0.07 0.09 0.08 0.07 0.08 0.08 0.08 0.08 0.09 0.10 0.10 0.07 0.07 0.06 0.04 0.04 0.04 0.04 0.03
MSLP
1013.02 1013.02 1013.13 1013.33 1013.57 1013.79 1013.93 1013.94 1013.84 1013.63 1013.38 1013.13 1012.96 1012.89 1012.92 1013.05 1013.23 1013.42 1013.58 1013.70 1013.77 1013.82 1013.87 1013.94 1014.04 1014.16 1014.29 1014.40 1014.47 1014.51 1014.53 1014.55 1014.62 1014.75 1014.97 1015.27 1015.61 1015.96 1016.29 1016.55 1016.74 1016.87 1016.97
1013.20 1013.25 1013.38 1013.57 1013.77 1013.94 1014.02 1014.00 1013.87 1013.67 1013.44 1013.25 1013.14 1013.13 1013.22 1013.38 1013.57 1013.74 1013.88 1013.97 1014.04 1014.10 1014.20 1014.33 1014.51 1014.72 1014.91 1015.06 1015.14 1015.16 1015.14 1015.11 1015.13 1015.24 1015.45 1015.75 1016.10 1016.47 1016.80 1017.07 1017.24 1017.35 1017.41
1013.32 1013.40 1013.54 1013.72 1013.90 1014.03 1014.09 1014.05 1013.93 1013.76 1013.58 1013.45 1013.41 1013.45 1013.58 1013.75 1013.93 1014.08 1014.18 1014.24 1014.29 1014.37 1014.49 1014.68 1014.92 1015.18 1015.42 1015.59 1015.67 1015.66 1015.60 1015.53 1015.52 1015.59 1015.79 1016.09 1016.46 1016.84 1017.18 1017.45 1017.63 1017.72 1017.77
1013.35 1013.46 1013.61 1013.79 1013.96 1014.10 1014.16 1014.14 1014.05 1013.92 1013.80 1013.73 1013.74 1013.83 1013.98 1014.15 1014.31 1014.43 1014.50 1014.54 1014.58 1014.66 1014.80 1015.02 1015.30 1015.59 1015.84 1016.01 1016.07 1016.04 1015.94 1015.83 1015.78 1015.83 1016.02 1016.32 1016.70 1017.10 1017.46 1017.74 1017.92 1018.02 1018.09
1013.30 1013.42 1013.58 1013.79 1013.98 1014.15 1014.25 1014.27 1014.24 1014.17 1014.11 1014.09 1014.14 1014.25 1014.41 1014.58 1014.72 1014.82 1014.86 1014.89 1014.92 1015.01 1015.17 1015.41 1015.70 1016.00 1016.24 1016.38 1016.41 1016.33 1016.19 1016.05 1015.97 1016.02 1016.20 1016.51 1016.90 1017.31 1017.69 1017.98 1018.18 1018.30 1018.38
1013.20 1013.33 1013.53 1013.76 1014.00 1014.22 1014.37 1014.46 1014.49 1014.48 1014.47 1014.49 1014.56 1014.69 1014.84 1015.00 1015.13 1015.22 1015.26 1015.29 1015.35 1015.45 1015.63 1015.87 1016.16 1016.44 1016.64 1016.75 1016.73 1016.60 1016.43 1016.26 1016.18 1016.22 1016.42 1016.74 1017.14 1017.56 1017.95 1018.25 1018.46 1018.59 1018.69
1013.12 1013.27 1013.49 1013.76 1014.05 1014.32 1014.54 1014.69 1014.78 1014.82 1014.85 1014.90 1014.98 1015.11 1015.26 1015.40 1015.53 1015.62 1015.69 1015.74 1015.83 1015.96 1016.15 1016.40 1016.66 1016.91 1017.07 1017.12 1017.06 1016.90 1016.70 1016.52 1016.44 1016.50 1016.71 1017.06 1017.47 1017.91 1018.29 1018.59 1018.80 1018.93 1019.02
1013.14 1013.30 1013.53 1013.83 1014.16 1014.47 1014.74 1014.95 1015.08 1015.16 1015.22 1015.28 1015.37 1015.49 1015.63 1015.78 1015.91 1016.02 1016.11 1016.21 1016.32 1016.48 1016.69 1016.93 1017.17 1017.37 1017.49 1017.50 1017.39 1017.21 1017.00 1016.84 1016.78 1016.88 1017.12 1017.49 1017.92 1018.35 1018.73 1019.02 1019.21 1019.31 1019.38
1013.30 1013.46 1013.69 1014.00 1014.34 1014.67 1014.96 1015.19 1015.35 1015.46 1015.53 1015.60 1015.70 1015.82 1015.96 1016.11 1016.25 1016.38 1016.50 1016.63 1016.78 1016.95 1017.16 1017.39 1017.60 1017.77 1017.84 1017.81 1017.69 1017.51 1017.32 1017.19 1017.18 1017.31 1017.59 1017.98 1018.43 1018.86 1019.23 1019.50 1019.66 1019.73 1019.75
1013.62 1013.76 1013.98 1014.26 1014.58 1014.90 1015.17 1015.40 1015.56 1015.68 1015.76 1015.85 1015.95 1016.08 1016.22 1016.38 1016.54 1016.69 1016.83 1016.98 1017.14 1017.31 1017.51 1017.72 1017.90 1018.02 1018.07 1018.02 1017.90 1017.74 1017.58 1017.51 1017.55 1017.74 1018.06 1018.47 1018.93 1019.37 1019.72 1019.96 1020.09 1020.12 1020.11
1014.05 1014.18 1014.36 1014.60 1014.86 1015.12 1015.36 1015.55 1015.70 1015.81 1015.91 1016.01 1016.13 1016.28 1016.44 1016.61 1016.78 1016.94 1017.08 1017.22 1017.37 1017.53 1017.70 1017.87 1018.01 1018.10 1018.13 1018.08 1017.98 1017.85 1017.75 1017.73 1017.83 1018.07 1018.42 1018.87 1019.33 1019.76 1020.11 1020.33 1020.44 1020.45 1020.41
1014.55 1014.66 1014.80 1014.97 1015.16 1015.34 1015.50 1015.65 1015.77 1015.87 1015.98 1016.10 1016.25 1016.42 1016.61 1016.79 1016.97 1017.12 1017.25 1017.37 1017.49 1017.61 1017.73 1017.86 1017.96 1018.03 1018.04 1018.00 1017.92 1017.84 1017.79 1017.83 1017.98 1018.26 1018.64 1019.10 1019.56 1019.99 1020.33 1020.55 1020.65 1020.66 1020.61
1015.07 1015.16 1015.26 1015.35 1015.44 1015.53 1015.62 1015.70 1015.78 1015.88 1016.00 1016.15 1016.33 1016.54 1016.74 1016.94 1017.12 1017.26 1017.36 1017.44 1017.51 1017.58 1017.66 1017.73 1017.80 1017.84 1017.85 1017.82 1017.78 1017.74 1017.74 1017.82 1018.00 1018.30 1018.69 1019.14 1019.60 1020.02 1020.36 1020.58 1020.70 1020.73 1020.70
1015.54 1015.63 1015.68 1015.70 1015.71 1015.72 1015.72 1015.74 1015.79 1015.88 1016.01 1016.18 1016.39 1016.62 1016.85 1017.06 1017.23 1017.35 1017.43 1017.47 1017.50 1017.52 1017.54 1017.58 1017.62 1017.64 1017.65 1017.64 1017.62 1017.61 1017.64 1017.74 1017.94 1018.23 1018.60 1019.03 1019.47 1019.87 1020.21 1020.45 1020.59 1020.65 1020.66
1015.95 1016.04 1016.06 1016.03 1015.97 1015.90 1015.84 1015.81 1015.83 1015.90 1016.03 1016.22 1016.45 1016.70 1016.94 1017.15 1017.31 1017.42 1017.47 1017.49 1017.48 1017.47 1017.47 1017.48 1017.50 1017.52 1017.53 1017.53 1017.53 1017.54 1017.58 1017.68 1017.86 1018.12 1018.46 1018.84 1019.24 1019.62 1019.94 1020.19 1020.36 1020.46 1020.50
1016.28 1016.38 1016.38 1016.32 1016.21 1016.10 1015.99 1015.92 1015.91 1015.97 1016.10 1016.28 1016.51 1016.76 1016.99 1017.20 1017.35 1017.45 1017.50 1017.50 1017.49 1017.48 1017.47 1017.48 1017.50 1017.52 1017.54 1017.56 1017.57 1017.59 1017.63 1017.71 1017.86 1018.07 1018.35 1018.67 1019.01 1019.34 1019.64 1019.88 1020.06 1020.18 1020.26
1016.53 1016.64 1016.64 1016.57 1016.44 1016.30 1016.17 1016.08 1016.05 1016.09 1016.20 1016.37 1016.57 1016.79 1017.01 1017.19 1017.34 1017.44 1017.49 1017.52 1017.53 1017.53 1017.55 1017.58 1017.62 1017.66 1017.70 1017.73 1017.75 1017.77 1017.80 1017.86 1017.97 1018.13 1018.34 1018.59 1018.86 1019.14 1019.39 1019.61 1019.78 1019.90 1019.99
1016.72 1016.83 1016.84 1016.76 1016.64 1016.50 1016.36 1016.27 1016.23 1016.25 1016.33 1016.46 1016.62 1016.80 1016.97 1017.13 1017.26 1017.36 1017.44 1017.50 1017.55 1017.60 1017.66 1017.73 1017.81 1017.88 1017.95 1018.00 1018.03 1018.05 1018.08 1018.12 1018.20 1018.30 1018.45 1018.64 1018.84 1019.05 1019.25 1019.42 1019.56 1019.66 1019.74
1016.83 1016.94 1016.95 1016.88 1016.77 1016.64 1016.53 1016.45 1016.42 1016.42 1016.47 1016.54 1016.65 1016.76 1016.87 1016.99 1017.10 1017.20 1017.31 1017.41 1017.52 1017.63 1017.75 1017.88 1018.00 1018.11 1018.20 1018.27 1018.33 1018.36 1018.40 1018.44 1018.49 1018.57 1018.68 1018.80 1018.95 1019.09 1019.23 1019.35 1019.45 1019.51 1019.55
1016.86 1016.96 1016.96 1016.90 1016.80 1016.71 1016.63 1016.58 1016.56 1016.56 1016.57 1016.60 1016.64 1016.68 1016.73 1016.79 1016.87 1016.97 1017.09 1017.24 1017.40 1017.58 1017.76 1017.94 1018.10 1018.24 1018.37 1018.47 1018.55 1018.61 1018.67 1018.72 1018.78 1018.86 1018.94 1019.04 1019.14 1019.24 1019.32 1019.39 1019.44 1019.46 1019.46
1016.80 1016.86 1016.84 1016.78 1016.71 1016.66 1016.63 1016.62 1016.62 1016.63 1016.63 1016.62 1016.59 1016.56 1016.54 1016.54 1016.59 1016.67 1016.81 1016.98 1017.19 1017.41 1017.64 1017.86 1018.05 1018.23 1018.38 1018.51 1018.62 1018.72 1018.81 1018.90 1018.99 1019.09 1019.18 1019.27 1019.35 1019.42 1019.48 1019.51 1019.52 1019.51 1019.48
1016.63 1016.64 1016.60 1016.54 1016.49 1016.48 1016.50 1016.54 1016.59 1016.62 1016.62 1016.58 1016.50 1016.42 1016.33 1016.28 1016.28 1016.34 1016.47 1016.66 1016.89 1017.14 1017.39 1017.63 1017.85 1018.04 1018.21 1018.36 1018.50 1018.64 1018.78 1018.92 1019.06 1019.19 1019.31 1019.43 1019.52 1019.59 1019.64 1019.66 1019.66 1019.64 1019.60
1016.35 1016.32 1016.25 1016.18 1016.16 1016.18 1016.26 1016.36 1016.46 1016.53 1016.54 1016.50 1016.39 1016.26 1016.13 1016.02 1015.98 1016.01 1016.12 1016.30 1016.53 1016.78 1017.04 1017.28 1017.50 1017.70 1017.88 1018.05 1018.22 1018.39 1018.57 1018.76 1018.95 1019.14 1019.31 1019.46 1019.58 1019.68 1019.75 1019.80 1019.82 1019.81 1019.79
1015.98 1015.92 1015.84 1015.77 1015.76 1015.82 1015.94 1016.10 1016.26 1016.37 1016.42 1016.38 1016.26 1016.11 1015.94 1015.80 1015.71 1015.71 1015.79 1015.95 1016.16 1016.40 1016.65 1016.88 1017.09 1017.28 1017.46 1017.63 1017.81 1018.01 1018.23 1018.47 1018.71 1018.94 1019.16 1019.36 1019.54 1019.68 1019.80 1019.89 1019.96 1020.00 1020.03
1015.58 1015.51 1015.42 1015.35 1015.36 1015.45 1015.61 1015.82 1016.02 1016.17 1016.25 1016.22 1016.12 1015.95 1015.76 1015.59 1015.48 1015.45 1015.50 1015.64 1015.83 1016.04 1016.27 1016.48 1016.68 1016.85 1017.02 1017.19 1017.38 1017.60 1017.84 1018.10 1018.38 1018.65 1018.92 1019.17 1019.39 1019.59 1019.78 1019.94 1020.08 1020.20 1020.30
1015.18 1015.12 1015.04 1014.99 1015.01 1015.12 1015.31 1015.54 1015.77 1015.95 1016.05 1016.05 1015.95 1015.78 1015.59 1015.41 1015.28 1015.23 1015.26 1015.37 1015.54 1015.74 1015.95 1016.14 1016.32 1016.48 1016.64 1016.80 1016.99 1017.21 1017.46 1017.73 1018.03 1018.33 1018.63 1018.92 1019.19 1019.46 1019.71 1019.95 1020.18 1020.39 1020.57
Thickness
5768 5767 5758 5759 5759 5759 5759 5759 5760 5760 5760 5761 5761 5761 5761 5761 5760 5759 5759 5758 5757 5757 5756 5755 5754 5753 5752 5752 5751 5750 5749 5748 5747 5747 5746 5745 5744 5744 5743 5742 5742 5741 5738
5770 5766 5758 5757 5757 5757 5758 5758 5758 5758 5758 5759 5759 5759 5759 5759 5758 5757 5757 5756 5756 5755 5754 5753 5752 5751 5750 5749 5749 5748 5747 5746 5745 5745 5745 5744 5743 5742 5741 5741 5741 5740 5737
5769 5765 5759 5756 5756 5756 5756 5756 5756 5756 5757 5757 5757 5757 5757 5757 5756 5755 5755 5755 5754 5753 5752 5751 5751 5750 5749 5748 5747 5746 5745 5745 5744 5744 5744 5745 5742 5740 5739 5739 5738 5737 5736
5768 5765 5759 5754 5754 5755 5754 5754 5754 5754 5754 5754 5755 5755 5754 5754 5754 5753 5753 5752 5752 5751 5750 5749 5749 5748 5747 5746 5745 5744 5744 5743 5743 5744 5747 5746 5743 5739 5738 5737 5737 5735 5734
5766 5763 5757 5754 5753 5753 5753 5753 5753 5752 5752 5752 5752 5752 5752 5752 5752 5752 5751 5751 5750 5749 5748 5748 5747 5746 5745 5744 5744 5743 5743 5743 5743 5745 5746 5745 5742 5738 5737 5736 5735 5734 5733
5766 5764 5757 5753 5752 5752 5752 5751 5751 5751 5751 5751 5750 5750 5750 5750 5750 5750 5750 5749 5749 5748 5747 5746 5745 5745 5744 5743 5743 5742 5742 5742 5744 5746 5745 5744 5742 5738 5736 5735 5734 5733 5732
5768 5764 5759 5753 5752 5751 5751 5750 5750 5750 5749 5749 5748 5748 5748 5748 5748 5748 5748 5748 5747 5747 5746 5746 5745 5744 5743 5743 5742 5741 5741 5743 5746 5746 5745 5744 5740 5737 5736 5734 5733 5732 5731
5768 5765 5759 5753 5751 5750 5750 5750 5749 5749 5748 5747 5747 5747 5746 5746 5747 5747 5747 5747 5746 5746 5745 5745 5744 5743 5743 5742 5741 5741 5741 5743 5746 5747 5745 5742 5738 5736 5734 5733 5732 5731 5730
5769 5765 5762 5759 5754 5751 5749 5749 5748 5747 5747 5746 5746 5745 5745 5745 5745 5745 5745 5745 5745 5745 5744 5744 5743 5743 5742 5741 5740 5740 5741 5743 5747 5747 5745 5742 5737 5735 5734 5732 5731 5730 5729
5769 5766 5762 5761 5758 5756 5752 5748 5747 5747 5746 5745 5745 5744 5744 5745 5745 5745 5745 5744 5744 5744 5744 5743 5743 5742 5741 5741 5740 5741 5741 5744 5748 5747 5745 5740 5736 5735 5733 5732 5730 5729 5728
5766 5765 5764 5762 5759 5757 5755 5750 5749 5747 5746 5745 5745 5744 5746 5748 5748 5747 5745 5743 5743 5743 5743 5743 5743 5742 5742 5741 5741 5741 5743 5747 5748 5747 5743 5738 5736 5734 5733 5731 5730 5729 5727
5763 5764 5764 5761 5758 5757 5756 5752 5752 5751 5748 5748 5747 5747 5748 5747 5747 5747 5743 5743 5743 5743 5743 5743 5743 5743 5744 5745 5743 5743 5746 5747 5747 5746 5742 5737 5736 5734 5733 5731 5730 5728 5726
5766 5765 5765 5761 5757 5757 5755 5754 5753 5751 5749 5749 5747 5747 5746 5747 5748 5748 5747 5746 5745 5745 5746 5745 5746 5748 5748 5747 5746 5747 5747 5748 5748 5746 5741 5737 5735 5734 5732 5731 5730 5728 5726
5766 5765 5765 5762 5758 5755 5754 5754 5753 5753 5751 5751 5747 5748 5748 5748 5748 5748 5748 5748 5747 5747 5747 5748 5747 5747 5747 5747 5747 5747 5747 5748 5747 5745 5740 5737 5735 5734 5732 5731 5730 5728 5727
5766 5765 5764 5761 5758 5755 5753 5753 5754 5752 5752 5750 5748 5747 5747 5749 5749 5748 5747 5746 5748 5748 5747 5747 5747 5747 5747 5747 5747 5747 5747 5746 5746 5745 5741 5737 5735 5733 5732 5731 5730 5728 5727
5768 5766 5766 5762 5760 5756 5754 5753 5752 5752 5750 5750 5749 5748 5747 5749 5748 5748 5748 5747 5748 5749 5749 5748 5748 5747 5747 5747 5747 5746 5746 5746 5744 5743 5743 5739 5736 5734 5733 5731 5730 5729 5727
5770 5769 5767 5764 5762 5758 5757 5755 5755 5754 5753 5752 5750 5748 5748 5748 5747 5748 5749 5748 5748 5748 5747 5748 5748 5747 5747 5747 5746 5746 5745 5744 5744 5742 5742 5741 5739 5735 5734 5732 5730 5729 5727
5773 5770 5768 5769 5765 5761 5758 5756 5757 5756 5754 5752 5751 5750 5749 5748 5747 5747 5749 5750 5748 5749 5748 5748 5748 5748 5747 5746 5746 5746 5746 5744 5743 5742 5742 5741 5740 5740 5736 5733 5731 5729 5728
5775 5772 5769 5768 5766 5764 5761 5759 5758 5756 5754 5754 5753 5752 5751 5749 5748 5748 5748 5748 5748 5749 5749 5750 5750 5748 5745 5745 5746 5745 5746 5745 5744 5744 5743 5742 5741 5739 5738 5735 5732 5730 5728
5779 5775 5772 5769 5767 5765 5763 5761 5759 5757 5757 5755 5754 5752 5751 5750 5749 5749 5749 5748 5749 5749 5748 5748 5746 5746 5745 5745 5746 5746 5746 5746 5745 5744 5743 5742 5741 5740 5739 5737 5735 5732 5729
5781 5777 5774 5771 5769 5766 5764 5762 5760 5759 5758 5757 5756 5754 5752 5751 5751 5749 5750 5749 5749 5749 5748 5749 5747 5745 5745 5745 5743 5742 5744 5745 5744 5742 5742 5741 5740 5738 5737 5736 5735 5733 5731
5784 5780 5777 5773 5771 5769 5767 5764 5762 5761 5761 5760 5758 5755 5754 5753 5752 5752 5750 5751 5750 5748 5748 5747 5745 5744 5744 5745 5741 5738 5736 5737 5739 5742 5740 5738 5737 5736 5736 5735 5733 5730 5729
5788 5784 5782 5777 5774 5772 5769 5768 5765 5762 5761 5760 5758 5757 5755 5754 5753 5752 5751 5751 5750 5750 5749 5747 5746 5744 5742 5744 5744 5739 5734 5731 5733 5736 5736 5735 5734 5733 5733 5731 5729 5727 5726
5793 5790 5785 5781 5777 5775 5772 5770 5766 5762 5760 5759 5759 5759 5757 5755 5754 5753 5752 5751 5750 5750 5748 5747 5749 5746 5742 5741 5743 5742 5741 5739 5732 5729 5731 5732 5731 5729 5729 5728 5727 5724 5722
5799 5794 5789 5784 5780 5777 5774 5771 5767 5765 5764 5764 5762 5759 5757 5756 5754 5753 5751 5750 5749 5749 5747 5746 5745 5744 5744 5742 5741 5741 5739 5737 5737 5730 5725 5725 5727 5727 5726 5724 5723 5721 5719
5803 5797 5792 5786 5781 5779 5776 5773 5769 5766 5763 5761 5759 5758 5758 5757 5755 5752 5751 5749 5748 5747 5745 5744 5743 5743 5742 5741 5740 5740 5737 5735 5733 5730 5725 5722 5721 5721 5722 5720 5719 5716 5714